Location: Decatur Area Astronomy Club
(40.0275°N, 88.7810°W)
Time: 07:05:10
(UTC-05:00)

Daily predictions for brighter satellites

Satellite Brightness Start Highest point End
(mag) Time Altitude Azimuth Time Altitude Azimuth Time Altitude Azimuth
Cosmos 1943 Rocket 4.2 18:58:47 10° NE 18:59:23 10° NE 18:59:59 10° NE
NOSS 3-2 (C) 3.8 18:54:08 10° SW 19:00:12 77° NW 19:06:51 10° NNE
Cosmos 1346 4.2 19:03:49 10° NNE 19:06:16 23° ENE 19:08:42 10° SE
Cosmos 1408 Rocket 3.6 19:02:06 10° N 19:06:23 56° E 19:10:36 10° SSE
OAO 3 Rocket 4.0 19:04:41 10° WSW 19:09:07 42° S 19:13:37 10° ESE
SKYMED 2 3.6 19:04:49 10° NNE 19:09:11 87° WNW 19:13:32 10° SSW
Cosmos 1464 Rocket 4.0 19:03:59 10° S 19:10:11 76° E 19:16:21 10° N
Helios 1A 4.2 19:07:26 10° ESE 19:10:45 23° ENE 19:14:04 10° NNE
Cosmos 2034 Rocket 4.1 19:05:01 10° SSE 19:11:07 57° E 19:17:19 10° NNE
Cosmos 1805 3.4 19:07:48 10° S 19:11:37 50° E 19:15:27 10° NNE
Cosmos 2369 Rocket 3.2 19:06:54 10° N 19:11:37 26° NE 19:16:20 10° ESE
Cosmos 1943 4.0 19:08:30 10° SSE 19:13:12 28° ESE 19:17:54 10° NE
FREGAT/IRIS 3.3 19:12:24 10° SE 19:15:13 34° ENE 19:18:04 10° N
Spot 2 Rocket 4.1 19:12:23 10° SE 19:16:56 36° ENE 19:21:30 10° N
CZ-2C R/B 4.4 19:14:13 10° SSW 19:18:38 34° W 19:22:58 10° NNW
Cosmos 1048 Rocket 4.2 19:15:48 10° S 19:20:51 48° ESE 19:25:53 10° NNE
Cosmos 1603 3.7 19:15:36 10° SSW 19:21:19 79° ESE 19:27:06 10° NNE
HJ-1C 4.1 19:22:07 10° SE 19:25:08 32° ENE 19:28:12 10° N
Cosmos 1733 4.3 19:22:48 10° SE 19:25:52 23° E 19:28:55 10° NE
In-Cosmos 22 4.3 19:21:49 10° N 19:27:38 88° E 19:33:21 10° S
Gbstr 26 Del rocket 3.3 19:23:30 10° SW 19:27:39 56° SE 19:32:42 10° ENE
Cosmos 1269 Rocket 4.0 19:23:35 10° S 19:28:48 67° ESE 19:34:03 10° NNE
Cosmos 1174 4.4 19:26:34 10° S 19:31:09 41° ESE 19:34:51 10° NE
Cosmos 1953 2.3 19:27:24 10° S 19:31:22 87° W 19:35:22 10° N
Cosmos 1674 3.3 19:28:50 10° N 19:32:24 34° ENE 19:35:58 10° SE
TELKOM 3 3.5 19:29:48 10° NW 19:32:39 49° NNE 19:33:42 25° E
USA 215 3.7 19:27:19 10° ENE 19:33:20 39° SE 19:39:20 10° SSW
Spot 1 4.2 19:30:48 10° SSE 19:35:21 58° ENE 19:39:40 10° N
Helios 1B rocket 2.7 19:32:20 10° NNE 19:36:18 44° E 19:40:13 10° S
Cosmos 1743 Rocket 3.6 19:33:39 10° N 19:38:02 59° E 19:42:21 10° SSE
Cosmos 1470 3.1 19:34:31 10° SSE 19:38:09 39° E 19:41:47 10° NNE
CZ-4B DEB 4.1 19:39:43 21° ENE 19:39:51 21° ENE 19:42:24 10° NNE
Resurs 1-3 3.9 19:38:07 10° SE 19:42:17 45° ENE 19:46:29 10° N
ATLAS 5 CENTAUR R/B 3.5 19:37:55 10° WSW 19:42:19 34° NW 19:47:05 10° NNE
Cosmos 1544 3.1 19:41:59 10° S 19:45:43 85° W 19:49:29 10° N
Resurs 01 Rocket 1.5 19:48:24 10° SSE 19:52:50 77° ENE 19:57:18 10° N
Cosmos 2058 4.4 19:53:27 10° NNE 19:55:44 20° NE 19:55:44 20° NE
METEOR-M 4.2 19:51:39 10° SSE 19:57:00 84° WSW 20:02:23 10° NNW
SJ-6B 4.0 19:54:34 10° S 19:58:24 45° W 20:02:21 10° NNW
SL-8 R/B 4.3 19:56:10 10° W 20:00:50 52° NNW 20:04:09 18° NE
ALOS 2.4 19:58:30 17° SE 20:01:54 53° ENE 20:06:27 10° N
FengYun 1-2 T 4.1 20:00:16 10° SSE 20:05:45 80° ENE 20:11:16 10° N
Cosmos 2151 3.1 20:06:33 10° N 20:10:40 48° E 20:11:13 45° ESE
ASTEX 1 3.2 20:06:01 10° N 20:10:55 70° E 20:15:46 10° S
Meteor 1-29 3.0 20:07:40 10° N 20:11:11 78° WNW 20:14:38 10° SSW
Nadezhda 4 Rocket 4.2 20:06:08 10° NNW 20:12:22 72° W 20:18:30 10° S
Cosmos 1110 Rocket 4.3 20:07:43 10° N 20:12:51 47° ENE 20:14:19 38° ESE
Cosmos 2279 Rocket 4.4 20:09:24 19° SE 20:13:14 38° E 20:18:53 10° NNE
GP-B 3.2 20:10:17 10° NNE 20:14:37 50° E 20:15:21 44° ESE
Meteor 1-11 4.5 20:10:33 10° N 20:16:08 48° ENE 20:17:58 36° ESE
FENGYUN 3A 3.5 20:13:33 15° SSE 20:18:05 76° ENE 20:23:29 10° N
Cosmos 2221 4.3 20:21:56 19° NNE 20:21:56 19° NNE 20:23:19 10° NNE
ISS -1.4 20:16:52 10° W 20:19:41 26° NNW 20:20:46 22° N
Cosmos 1092 Rocket 4.0 20:17:13 10° N 20:23:25 80° W 20:29:33 10° S
GPS 2-04 Rocket1 3.5 20:25:22 10° WSW 20:28:00 36° SSW 20:28:00 36° SSW
CENTAUR R/B 2.9 20:26:18 10° SW 20:32:18 65° NW 20:39:07 10° NNE
CZ-2D R/B 3.2 20:32:42 86° WSW 20:32:44 86° WSW 20:36:38 10° NNW
Cosmos 2142 Rocket 4.5 20:26:47 10° S 20:33:11 90° ENE 20:39:37 10° N
Cosmos 2026 Rocket 3.8 20:27:09 10° N 20:33:16 69° E 20:35:54 35° SSE
Cosmos 2251 Rocket 3.3 20:28:24 10° SSW 20:33:36 77° ESE 20:38:51 10° NNE
Cosmos 494 Rocket 3.9 20:28:55 10° S 20:37:17 22° NNE 20:39:08 10° NNE
Cosmos 839 Rocket 4.2 20:29:16 10° NNW 20:36:47 85° WSW 20:39:42 35° SSE
Cosmos 1328 3.8 20:33:23 10° N 20:37:21 76° W 20:37:21 76° W
Cosmos 1655 Rocket 3.9 20:31:46 10° N 20:37:58 67° E 20:39:53 45° SE
SL-14 R/B 4.5 20:34:51 10° N 20:37:14 33° N 20:37:14 33° N
Cosmos 1634 Rocket 4.1 20:33:04 10° SSW 20:39:18 77° W 20:45:31 10° N
ERBS 4.1 20:37:26 10° NNW 20:39:19 26° NNW 20:39:19 26° NNW
H-2A R/B 3.0 20:41:19 67° W 20:41:19 67° W 20:45:00 10° NNW
Cosmos 1331 Rocket 3.8 20:37:45 10° NNW 20:43:06 78° ENE 20:43:31 72° ESE
Cosmos 1943 Rocket 2.1 20:38:46 10° NNW 20:44:20 62° ENE 20:44:22 62° ENE
Cosmos 2369 Rocket 3.1 20:50:27 10° NW 20:55:49 46° WSW 20:58:45 25° SSW
Cosmos 1943 4.5 20:51:46 10° SW 20:57:02 40° WNW 21:02:18 10° N
Envisat 4.2 21:08:51 32° N 21:08:51 32° N 21:11:36 10° N
USA 215 3.6 21:13:01 28° NNE 21:16:29 60° NW 21:22:53 10° WSW
